Vancouver Int'l Airport, British Columbia

Past 24 Hour Conditions

Date / Time
(PDT)
Conditions Temp
(°C)
Humidity
(%)
Dew Point
(°C)
Wind
(km/h)
Pressure
(kPa)
Visibility
(km)
20 October 2014
23:00 Cloudy 13   96 12 E 16 100.7 24
22:00 Mostly Cloudy 13   95 12 E 17 100.7 24
21:00 Light Rain 13   89 12 SE 9 100.7 19
20:00 Light Rain 14 90 12 SSE 4 100.7 16
19:00 Mostly Cloudy 14 87 12 ESE 12 100.7 24
18:00 Partly Cloudy 15 86 12 ESE 12 100.6 24
17:00 Mostly Cloudy 16 80 12 ESE 17 100.7 24
16:00 Partly Cloudy 17   79 13 ESE 17 gust 29 100.7 32
15:00 Partly Cloudy 17   79 14 SE 22 100.7 32
14:00 Partly Cloudy 16 79 12 ESE 18 100.6 24
13:00 Mostly Cloudy 16 83 13 SE 19 100.6 24
12:00 Mostly Cloudy 16 83 13 ESE 16 100.6 24
11:00 Mostly Cloudy 17   85 14 ESE 14 100.6 19
10:00 Mostly Cloudy 15 95 14 ESE 17 100.6 16
9:00 Mostly Cloudy 14 96 13 E 15 100.5 16
8:00 Light Rainshower 14 97 13 E 13 100.5 13
7:00 Light Rainshower 14 95 13 ESE 17 100.5 16
6:00 Mostly Cloudy 14 94 13 SE 13 100.5 24
5:00 Mostly Cloudy 15 94 14 E 16 100.4 24
4:00 Light Rain 14 96 14 E 15 100.4 19
3:00 Light Rain 14 97 13 ESE 10 100.4 24
2:00 Drizzle 14 95 13 ESE 16 100.5 24
1:00 Light Rain 15 97 14 E 5 100.5 24
00:00 Rain 14 96 14 S 5 100.5 16
19 October 2014
23:00 Light Rain 15 93 14 N 7 100.4 24
N/A Not available
↑ Highest temperature
↓ Lowest temperature

If you require additional historical weather information, please visit Climate Data Online.

Date modified: